Location: Deurze
(52.9838°N, 6.6090°E)
Time: 19:09:54
(UTC+00:00)

ERS-1 Rocket - Pass Details

Date: 11 March 2026
Orbit: 747 x 750 km, 98.2° (Epoch: 20 April)

Event Time Altitude Azimuth Distance (km) Brightness Sun altitude
Exits shadow 20:05:22 27° 189° (S) 1,419 4.2 -23.4°
Maximum altitude 20:08:00 59° 259° (WSW) 865 3.4 -23.7°
Drops below altitude 10° 20:12:58 10° 339° (NNW) 2,279 6.1 -24.4°
Sets 20:15:18 0° 343° (NNW) 3,208 6.9 -24.7°
